Flag for Mauritania Weather past 2 weeks in Nouakchott, Mauritania

Now
95 °F

Clear.


Feels Like: 105 °F
Forecast: 81 / 95 °F
Wind: No wind

Location: Nouakchott Airport

Current Time: Sep 4, 2015 at 1:32:52 PM

Latest Report: Sep 4, 2015 at 1:00 PM


Visibility: 4 mi

Pressure: 29.83 "Hg

Humidity: 50%

Dew point: 73 °F

Location of NouakchottLocation

Historic Weather in Nouakchott — Graph

°F

Nouakchott temperature yesterday

Maximum temperature yesterday: 93 °F (at 2:30 PM)
Minimum temperature yesterday: 79 °F (at 5:30 AM)
Average temperature yesterday: 85 °F

Past Weeks' High & Low Weather Summary

 TemperatureHumidityPressure
High100 °F (Aug 29, 1:00 PM)100% (Aug 22, 4:00 PM)30.04 "Hg (Aug 22, 4:00 PM)
Low70 °F (Aug 22, 3:30 PM)21% (Aug 29, 2:00 PM)29.74 "Hg (Aug 28, 4:30 PM)
Average85 °F72%29.86 "Hg
* Reported Aug 20 12:00 Noon — Sep 4 12:30 PM, Nouakchott, Weather by CustomWeather, © 2015

Note: Actual official high and low records may vary slightly from our data, if they occured in-between our weather recording intervals... More about our weather records

Advertising

Nouakchott weather history for previous 24 hours

 ConditionsComfort  
Time TempWeatherWind HumidityBarometerVisibility
12:30 PM
Fri, Sep 4
93 °FClear.5 mph56%29.83 "Hg4 mi
12:00 PM90 °FClear.7 mph63%29.86 "Hg4 mi
11:30 AM88 °FClear.10 mph62%29.86 "Hg4 mi
11:00 AM88 °FClear.12 mph66%29.86 "Hg4 mi
10:30 AM86 °FClear.12 mph70%29.86 "Hg4 mi
10:00 AM86 °FClear.13 mph70%29.89 "Hg4 mi
9:30 AM86 °FClear.13 mph75%29.89 "Hg4 mi
9:00 AM84 °FClear.12 mph74%29.89 "Hg4 mi
8:30 AM84 °FPassing clouds.13 mph79%29.89 "Hg4 mi
8:00 AM84 °FPassing clouds.9 mph74%29.86 "Hg4 mi
7:30 AM82 °FScattered clouds.10 mph79%29.86 "Hg4 mi
7:00 AM82 °FScattered clouds.9 mph79%29.86 "Hg4 mi
6:30 AM82 °FPassing clouds.10 mph84%29.86 "Hg4 mi
6:00 AM82 °FClear.9 mph84%29.86 "Hg4 mi
5:30 AM84 °FClear.10 mph79%29.86 "Hg4 mi
5:00 AM84 °FClear.10 mph79%29.86 "Hg4 mi
4:30 AM84 °FClear.9 mph74%29.86 "Hg4 mi
4:00 AM82 °FClear.8 mph84%29.83 "Hg4 mi
3:30 AM82 °FClear.10 mph79%29.83 "Hg4 mi
3:00 AM82 °FClear.9 mph79%29.83 "Hg4 mi
2:30 AM82 °FClear.8 mph79%29.86 "Hg4 mi
2:00 AM82 °FClear.10 mph79%29.86 "Hg4 mi
1:30 AM82 °FClear.9 mph84%29.86 "Hg4 mi
1:00 AM82 °FClear.9 mph84%29.86 "Hg4 mi
12:30 AM82 °FClear.12 mph84%29.86 "Hg4 mi
12:00 AM82 °FClear.10 mph84%29.89 "Hg4 mi
11:30 PM
Thu, Sep 3
82 °FClear.9 mph84%29.89 "Hg4 mi
11:00 PM84 °FClear.7 mph79%29.89 "Hg4 mi
10:30 PM84 °FClear.7 mph79%29.89 "Hg4 mi
9:00 PM84 °FClear.9 mph79%29.86 "Hg4 mi
8:30 PM84 °FClear.10 mph79%29.86 "Hg4 mi
8:00 PM84 °FClear.10 mph79%29.83 "Hg4 mi
7:30 PM84 °FClear.10 mph74%29.83 "Hg4 mi
7:00 PM84 °FClear.10 mph70%29.83 "Hg4 mi
6:30 PM86 °FClear.12 mph66%29.83 "Hg4 mi
6:00 PM88 °FClear.12 mph62%29.83 "Hg4 mi
5:30 PM88 °FClear.10 mph55%29.83 "Hg4 mi
5:00 PM90 °FClear.13 mph49%29.83 "Hg4 mi
4:30 PM90 °FClear.10 mph55%29.83 "Hg4 mi
4:00 PM90 °FClear.12 mph59%29.83 "Hg4 mi
3:30 PM91 °FClear.10 mph52%29.83 "Hg4 mi
3:00 PM91 °FClear.9 mph49%29.86 "Hg4 mi
2:30 PM93 °FClear.8 mph47%29.86 "Hg4 mi
2:00 PM91 °FClear.8 mph49%29.86 "Hg4 mi
1:30 PM91 °FClear.7 mph52%29.86 "Hg4 mi
1:00 PM91 °FClear.6 mph56%29.89 "Hg4 mi
Weather by CustomWeather, © 2015

See weather overviewHow to use our weather pages